GW3577 Weather Reports


Display with metric or nautical units.
time (UTC)temp
F
wind
direction
speed
MPH
gust
MPH
rain 1hr
in
rain 24hr
in
rain mn
in
humidity
%
barometer
mb
20260902042402 74 298 0.0 0.0 0.00 0.00 0.00 89 1019.2
20260902041857 73 298 0.0 0.0 0.00 0.00 0.00 90 1019.2
20260902041352 74 298 0.0 0.0 0.00 0.00 0.00 88 1019.2
20260902040850 74 298 0.0 0.0 0.00 0.00 0.00 89 1018.8
20260902040346 74 298 1.0 4.0 0.00 0.00 0.00 88 1018.8
20260902035845 74 298 0.0 0.0 0.00 0.00 0.00 89 1018.8
20260902035340 74 298 0.0 0.0 0.00 0.00 0.00 88 1018.8
20260902034839 74 298 0.0 0.0 0.00 0.00 0.00 89 1018.8
20260902034335 74 298 1.0 3.0 0.00 0.00 0.00 89 1018.8
20260902033832 73 298 0.0 0.0 0.00 0.00 0.00 89 1018.8
20260902033328 74 311 2.0 6.0 0.00 0.00 0.00 88 1018.8
20260902032827 74 319 1.0 5.0 0.00 0.00 0.00 89 1018.8
20260902032322 74 319 0.0 0.0 0.00 0.00 0.00 88 1018.8
20260902031821 74 319 0.0 0.0 0.00 0.00 0.00 88 1018.8
20260902031317 73 319 0.0 0.0 0.00 0.00 0.00 89 1018.5
20260902030813 73 319 0.0 0.0 0.00 0.00 0.00 90 1018.8
20260902030308 73 319 0.0 3.0 0.00 0.00 0.00 89 1018.8
20260902025807 73 319 0.0 0.0 0.00 0.00 0.00 88 1018.8
20260902025306 74 319 0.0 0.0 0.00 0.00 0.00 87 1018.8
20260902024756 74 319 2.0 4.0 0.00 0.00 0.00 86 1018.8
20260902024252 75 319 0.0 0.0 0.00 0.00 0.00 86 1018.8
20260902023747 74 319 0.0 0.0 0.00 0.00 0.00 86 1018.8
20260902023242 75 319 0.0 0.0 0.00 0.00 0.00 84 1018.8
20260902022736 75 319 0.0 0.0 0.00 0.00 0.00 85 1018.8
20260902022232 75 319 0.0 0.0 0.00 0.00 0.00 86 1018.8
20260902021727 76 319 1.0 4.0 0.00 0.00 0.00 83 1018.8
20260902021221 75 315 5.0 6.0 0.00 0.00 0.00 84 1018.8
20260902020718 75 300 5.0 7.0 0.00 0.00 0.00 84 1018.5
20260902020213 75 300 0.0 0.0 0.00 0.00 0.00 85 1018.8
20260902015709 76 300 0.0 0.0 0.00 0.00 0.00 84 1018.5
20260902015205 76 300 2.0 3.0 0.00 0.00 0.00 85 1018.5
20260902014701 76 300 0.0 0.0 0.00 0.00 0.00 85 1018.5
20260902014156 76 300 0.0 0.0 0.00 0.00 0.00 84 1018.5
20260902013655 77 300 0.0 0.0 0.00 0.00 0.00 82 1018.5
20260902013151 76 300 0.0 0.0 0.00 0.00 0.00 82 1018.5
20260902012646 76 300 0.0 2.0 0.00 0.00 0.00 84 1018.2
20260902012141 77 300 0.0 0.0 0.00 0.00 0.00 83 1018.2
20260902011637 77 300 1.0 4.0 0.00 0.00 0.00 83 1018.2
20260902011131 77 300 2.0 4.0 0.00 0.00 0.00 83 1018.2
20260902010630 77 289 4.0 6.0 0.00 0.00 0.00 83 1018.2
20260902010127 79 319 0.0 0.0 0.00 0.00 0.00 79 1018.2
20260902005624 79 319 0.0 0.0 0.00 0.00 0.00 79 1018.2
20260902005121 79 319 0.0 0.0 0.00 0.00 0.00 76 1017.8
20260902004619 79 319 0.0 0.0 0.00 0.00 0.00 78 1017.8
20260902004115 79 315 0.0 4.0 0.00 0.00 0.00 80 1017.8
20260902003610 78 297 1.0 4.0 0.00 0.00 0.00 83 1017.5
20260902003106 79 271 3.0 4.0 0.00 0.00 0.00 83 1017.5
20260902002601 79 271 3.0 4.0 0.00 0.00 0.00 81 1017.5
20260902002056 80 271 2.0 3.0 0.00 0.00 0.00 79 1017.2
20260902001550 82 271 1.0 4.0 0.00 0.00 0.00 77 1017.2
20260902001046 83 271 0.0 0.0 0.00 0.00 0.00 75 1017.2
20260902000540 83 271 0.0 0.0 0.00 0.00 0.00 74 1017.2
20260902000035 83 271 0.0 0.0 0.00 0.00 0.00 73 1017.5
20260901235529 83 271 0.0 0.0 0.00 0.00 0.00 71 1017.2
20260901235026 83 271 0.0 0.0 0.00 0.00 0.00 71 1017.2
20260901234524 83 271 0.0 0.0 0.00 0.00 0.00 73 1017.2
20260901234020 84 271 0.0 0.0 0.00 0.00 0.00 73 1017.2
20260901233514 84 271 0.0 0.0 0.00 0.00 0.00 71 1017.2
20260901233010 85 271 0.0 0.0 0.00 0.00 0.00 70 1017.5
20260901232506 86 271 2.0 3.0 0.00 0.00 0.00 67 1017.5
20260901232006 87 271 0.0 0.0 0.00 0.00 0.00 65 1017.2
20260901231502 87 271 3.0 4.0 0.00 0.00 0.00 62 1017.5
20260901230959 88 271 4.0 4.0 0.00 0.00 0.00 61 1017.2
20260901230458 89 290 4.0 6.0 0.00 0.00 0.00 61 1017.5
20260901225953 89 275 4.0 5.0 0.00 0.00 0.00 60 1017.2
20260901225448 89 270 3.0 4.0 0.00 0.00 0.00 58 1017.5
20260901224943 90 279 3.0 4.0 0.00 0.00 0.00 58 1017.5
20260901224439 90 297 3.0 5.0 0.00 0.00 0.00 57 1017.2
20260901223935 90 265 3.0 4.0 0.00 0.00 0.00 57 1017.2
20260901223430 91 261 4.0 6.0 0.00 0.00 0.00 55 1017.2
20260901222926 91 275 3.0 6.0 0.00 0.00 0.00 55 1017.2
20260901222422 91 248 4.0 5.0 0.00 0.00 0.00 56 1017.2
20260901221918 91 285 3.0 6.0 0.00 0.00 0.00 55 1017.2
20260901221413 92 289 4.0 5.0 0.00 0.00 0.00 53 1017.2
20260901220908 93 243 3.0 4.0 0.00 0.00 0.00 54 1017.2
20260901220407 93 289 0.0 0.0 0.00 0.00 0.00 53 1017.2
20260901215906 93 289 0.0 3.0 0.00 0.00 0.00 52 1017.2
20260901215405 94 290 4.0 6.0 0.00 0.00 0.00 51 1017.2
20260901214904 94 283 3.0 6.0 0.00 0.00 0.00 51 1017.2
20260901214403 94 255 4.0 6.0 0.00 0.00 0.00 50 1017.2
20260901213903 94 288 4.0 6.0 0.00 0.00 0.00 51 1017.2
20260901213358 94 286 4.0 4.0 0.00 0.00 0.00 51 1017.2
20260901212857 95 261 3.0 6.0 0.00 0.00 0.00 50 1017.2
20260901212352 94 257 4.0 6.0 0.00 0.00 0.00 50 1017.2
20260901211849 96 272 5.0 8.0 0.00 0.00 0.00 48 1017.2
20260901211344 98 297 4.0 6.0 0.00 0.00 0.00 46 1017.2
20260901210840 99 324 0.0 4.0 0.00 0.00 0.00 45 1017.2
20260901210335 98 334 5.0 7.0 0.00 0.00 0.00 46 1017.5
20260901205832 97 352 3.0 7.0 0.00 0.00 0.00 46 1017.2
20260901205331 96 248 4.0 6.0 0.00 0.00 0.00 48 1017.2
20260901204826 97 298 7.0 9.0 0.00 0.00 0.00 48 1017.2
20260901204322 96 265 0.0 3.0 0.00 0.00 0.00 50 1017.5
20260901203817 96 252 6.0 10.0 0.00 0.00 0.00 48 1017.2
20260901203311 96 254 4.0 6.0 0.00 0.00 0.00 49 1017.2
20260901202806 96 241 5.0 7.0 0.00 0.00 0.00 48 1017.2
20260901202301 97 262 5.0 6.0 0.00 0.00 0.00 46 1017.2
20260901201757 98 296 3.0 6.0 0.00 0.00 0.00 46 1017.5
20260901201256 99 289 3.0 7.0 0.00 0.00 0.00 46 1017.5
20260901200750 98 292 5.0 8.0 0.00 0.00 0.00 47 1017.5
20260901200246 96 222 3.0 4.0 0.00 0.00 0.00 48 1017.5
20260901195744 96 246 4.0 6.0 0.00 0.00 0.00 49 1017.5
20260901195238 97 271 4.0 7.0 0.00 0.00 0.00 48 1017.5
20260901194733 97 266 4.0 7.0 0.00 0.00 0.00 47 1017.5
20260901194228 98 276 4.0 6.0 0.00 0.00 0.00 45 1017.5
20260901193725 99 298 5.0 8.0 0.00 0.00 0.00 45 1017.8
20260901193223 99 301 6.0 10.0 0.00 0.00 0.00 45 1017.8
20260901192718 96 281 5.0 7.0 0.00 0.00 0.00 49 1017.8
20260901192214 96 248 10.0 11.0 0.00 0.00 0.00 49 1017.8
20260901191709 96 237 5.0 6.0 0.00 0.00 0.00 48 1017.8
20260901191205 95 241 4.0 5.0 0.00 0.00 0.00 49 1018.2
20260901190701 96 244 6.0 10.0 0.00 0.00 0.00 48 1018.2
20260901190200 98 241 5.0 10.0 0.00 0.00 0.00 45 1018.2
20260901185659 99 307 0.0 2.0 0.00 0.00 0.00 44 1018.2
20260901185157 97 313 6.0 8.0 0.00 0.00 0.00 45 1018.2
20260901184653 99 340 7.0 11.0 0.00 0.00 0.00 44 1018.2
20260901184148 98 302 7.0 10.0 0.00 0.00 0.00 44 1018.2
20260901183643 100 327 8.0 11.0 0.00 0.00 0.00 44 1018.2
20260901183138 100 262 5.0 8.0 0.00 0.00 0.00 43 1018.2
20260901182634 99 343 7.0 10.0 0.00 0.00 0.00 43 1018.2
20260901182133 99 321 6.0 11.0 0.00 0.00 0.00 43 1018.2
20260901181628 97 1 6.0 10.0 0.00 0.00 0.00 45 1018.2
20260901181122 98 336 6.0 9.0 0.00 0.00 0.00 43 1018.2
20260901180616 99 334 7.0 11.0 0.00 0.00 0.00 43 1018.2
20260901180111 99 5 5.0 9.0 0.00 0.00 0.00 43 1018.2
20260901175609 97 321 6.0 10.0 0.00 0.00 0.00 45 1018.2
20260901175104 98 252 5.0 8.0 0.00 0.00 0.00 45 1018.2
20260901174600 98 290 7.0 11.0 0.00 0.00 0.00 44 1018.2
20260901174055 99 287 9.0 12.0 0.00 0.00 0.00 43 1018.2
20260901173550 98 310 1.0 5.0 0.00 0.00 0.00 43 1018.2
20260901173046 98 336 3.0 7.0 0.00 0.00 0.00 42 1018.2
20260901172541 99 323 4.0 7.0 0.00 0.00 0.00 41 1018.2
20260901172039 99 333 4.0 7.0 0.00 0.00 0.00 40 1017.8
20260901171538 98 280 0.0 0.0 0.00 0.00 0.00 40 1018.2
20260901171037 98 323 4.0 6.0 0.00 0.00 0.00 41 1018.2
20260901170532 97 340 4.0 8.0 0.00 0.00 0.00 42 1018.2
20260901170026 95 327 0.0 3.0 0.00 0.00 0.00 44 1018.2
20260901165521 95 340 5.0 8.0 0.00 0.00 0.00 44 1018.5
20260901165016 98 343 7.0 13.0 0.00 0.00 0.00 42 1018.2
20260901164512 98 338 5.0 7.0 0.00 0.00 0.00 44 1018.2
20260901164007 97 310 6.0 8.0 0.00 0.00 0.00 48 1018.2
20260901163502 95 281 0.0 2.0 0.00 0.00 0.00 49 1018.5
20260901163001 94 213 2.0 5.0 0.00 0.00 0.00 52 1018.5
20260901162457 94 123 3.0 4.0 0.00 0.00 0.00 51 1018.5
20260901161955 95 34 0.0 2.0 0.00 0.00 0.00 51 1018.8
20260901161455 94 117 0.0 0.0 0.00 0.00 0.00 53 1019.2
20260901160949 92 117 0.0 0.0 0.00 0.00 0.00 56 1019.2
20260901160446 90 117 0.0 0.0 0.00 0.00 0.00 58 1019.5
20260901155944 89 117 2.0 4.0 0.00 0.00 0.00 58 1019.5
20260901155444 89 117 5.0 6.0 0.00 0.00 0.00 61 1019.5
20260901154941 88 117 3.0 5.0 0.00 0.00 0.00 64 1020.0
20260901154440 88 117 3.0 5.0 0.00 0.00 0.00 64 1020.0
20260901153935 88 117 3.0 4.0 0.00 0.00 0.00 65 1020.0
20260901153429 87 117 3.0 4.0 0.00 0.00 0.00 65 1020.0
20260901152924 87 132 4.0 5.0 0.00 0.00 0.00 64 1020.0
20260901152418 87 132 4.0 4.0 0.00 0.00 0.00 65 1020.3
20260901151912 87 171 0.0 0.0 0.00 0.00 0.00 65 1020.3
20260901151407 88 171 1.0 2.0 0.00 0.00 0.00 65 1020.3
20260901150906 88 171 0.0 0.0 0.00 0.00 0.00 65 1020.3
20260901150404 88 171 2.0 3.0 0.00 0.00 0.00 65 1020.3
20260901145901 87 171 2.0 3.0 0.00 0.00 0.00 64 1020.3
20260901145356 87 171 2.0 4.0 0.00 0.00 0.00 64 1020.3
20260901144851 87 171 1.0 2.0 0.00 0.00 0.00 64 1020.3
20260901144347 88 171 0.0 0.0 0.00 0.00 0.00 64 1020.3
20260901143843 88 241 0.0 2.0 0.00 0.00 0.00 64 1020.3
20260901143338 87 241 0.0 0.0 0.00 0.00 0.00 67 1020.0
20260901142835 86 241 0.0 0.0 0.00 0.00 0.00 67 1020.3
20260901142333 86 241 3.0 5.0 0.00 0.00 0.00 67 1020.3
20260901141828 86 241 0.0 0.0 0.00 0.00 0.00 68 1020.3
20260901141323 86 241 1.0 2.0 0.00 0.00 0.00 68 1020.3
20260901140822 85 241 0.0 2.0 0.00 0.00 0.00 69 1020.0
20260901140320 86 201 1.0 4.0 0.00 0.00 0.00 68 1020.0
20260901135816 85 264 4.0 6.0 0.00 0.00 0.00 69 1020.0
20260901135310 85 176 2.0 5.0 0.00 0.00 0.00 70 1020.0
20260901134806 84 231 1.0 2.0 0.00 0.00 0.00 72 1020.0
20260901134301 83 231 3.0 4.0 0.00 0.00 0.00 73 1020.3
20260901133800 83 231 4.0 5.0 0.00 0.00 0.00 73 1020.0
20260901133301 83 238 2.0 4.0 0.00 0.00 0.00 73 1020.3
20260901132759 82 0 0.0 0.0 0.00 0.00 0.00 74 1020.3
20260901132254 82 0 0.0 0.0 0.00 0.00 0.00 75 1020.3
20260901131748 81 0 0.0 0.0 0.00 0.00 0.00 76 1020.6
20260901131248 80 0 0.0 0.0 0.00 0.00 0.00 77 1020.3
20260901130743 80 0 0.0 0.0 0.00 0.00 0.00 79 1020.3
20260901130243 79 351 0.0 0.0 0.00 0.00 0.00 79 1020.3
20260901125740 79 351 0.0 0.0 0.00 0.00 0.00 81 1020.6
20260901124951 77 351 0.0 0.0 0.00 0.00 0.00 83 1020.3
20260901124446 77 351 0.0 0.0 0.00 0.00 0.00 83 1020.3
20260901123941 77 351 0.0 0.0 0.00 0.00 0.00 82 1020.6
20260901123436 76 351 0.0 0.0 0.00 0.00 0.00 87 1020.6
20260901122933 75 351 0.0 0.0 0.00 0.00 0.00 89 1020.6
20260901122428 75 351 0.0 0.0 0.00 0.00 0.00 92 1020.6
20260901121927 74 351 0.0 0.0 0.00 0.00 0.00 92 1020.6
20260901121423 73 351 0.0 0.0 0.00 0.00 0.00 95 1020.6
20260901120918 71 351 0.0 0.0 0.00 0.00 0.00 97 1020.6
20260901120417 70 351 0.0 0.0 0.00 0.00 0.00 98 1020.6
20260901115913 69 351 0.0 0.0 0.00 0.00 0.00 99 1020.6
20260901115412 69 351 0.0 0.0 0.00 0.00 0.00 99 1020.6
20260901114911 68 351 0.0 0.0 0.00 0.00 0.00 100 1020.6
20260901114406 68 351 0.0 0.0 0.00 0.00 0.00 100 1020.6
20260901113904 68 351 0.0 0.0 0.00 0.00 0.00 100 1020.3
20260901113403 68 351 0.0 0.0 0.00 0.00 0.00 100 1020.3
20260901112859 67 351 0.0 0.0 0.00 0.00 0.00 100 1020.3
20260901112353 67 351 0.0 0.0 0.00 0.00 0.00 100 1020.3
20260901111848 67 351 0.0 0.0 0.00 0.00 0.00 99 1020.3
20260901111346 67 351 0.0 0.0 0.00 0.00 0.00 100 1020.3
20260901110845 67 351 0.0 0.0 0.00 0.00 0.00 100 1020.3
20260901110341 67 351 0.0 0.0 0.00 0.00 0.00 99 1020.3
20260901105837 67 351 0.0 0.0 0.00 0.00 0.00 99 1020.3
20260901105332 67 351 0.0 0.0 0.00 0.00 0.00 99 1020.0
20260901104829 67 351 0.0 0.0 0.00 0.00 0.00 100 1020.0
20260901104324 67 351 0.0 0.0 0.00 0.00 0.00 99 1020.0
20260901103819 67 351 0.0 0.0 0.00 0.00 0.00 99 1020.0
20260901103319 67 351 0.0 0.0 0.00 0.00 0.00 99 1020.0
20260901102814 67 351 0.0 0.0 0.00 0.00 0.00 99 1020.0
20260901102313 67 351 0.0 0.0 0.00 0.00 0.00 99 1020.0
20260901101809 68 351 0.0 0.0 0.00 0.00 0.00 99 1020.0
20260901101309 68 351 0.0 0.0 0.00 0.00 0.00 99 1020.0
20260901100808 68 351 0.0 0.0 0.00 0.00 0.00 100 1020.0
20260901100303 67 351 0.0 0.0 0.00 0.00 0.00 99 1020.0
20260901095802 67 351 0.0 0.0 0.00 0.00 0.00 99 1020.0
20260901095259 67 351 0.0 0.0 0.00 0.00 0.00 99 1020.0
20260901094754 68 351 0.0 0.0 0.00 0.00 0.00 99 1020.0
20260901094249 68 351 0.0 0.0 0.00 0.00 0.00 99 1020.0
20260901093744 68 351 0.0 0.0 0.00 0.00 0.00 100 1020.0
20260901093237 68 351 0.0 0.0 0.00 0.00 0.00 99 1020.0
20260901092734 68 351 0.0 0.0 0.00 0.00 0.00 99 1020.0
20260901092230 67 351 0.0 0.0 0.00 0.00 0.00 99 1020.0
20260901091725 68 351 0.0 0.0 0.00 0.00 0.00 99 1020.0
20260901091220 68 351 0.0 0.0 0.00 0.00 0.00 99 1020.0
20260901090715 68 351 0.0 0.0 0.00 0.00 0.00 99 1020.0
20260901090210 68 351 0.0 0.0 0.00 0.00 0.00 99 1020.0
20260901085706 68 351 0.0 0.0 0.00 0.00 0.00 99 1020.0
20260901085201 68 351 0.0 0.0 0.00 0.00 0.00 99 1020.0
20260901084658 68 351 0.0 0.0 0.00 0.00 0.00 99 1020.0
20260901084153 68 351 0.0 0.0 0.00 0.00 0.00 99 1020.0
20260901083653 68 351 0.0 0.0 0.00 0.00 0.00 99 1020.0
20260901083152 68 351 0.0 0.0 0.00 0.00 0.00 99 1020.0
20260901082645 68 351 0.0 0.0 0.00 0.00 0.00 99 1020.0
20260901082141 69 351 0.0 0.0 0.00 0.00 0.00 99 1020.0
20260901081636 68 351 0.0 0.0 0.00 0.00 0.00 98 1020.0
20260901081131 69 351 0.0 0.0 0.00 0.00 0.00 99 1020.3
20260901080631 69 351 0.0 0.0 0.00 0.00 0.00 99 1020.3
20260901080129 69 351 0.0 0.0 0.00 0.00 0.00 99 1020.0
20260901075625 69 351 0.0 0.0 0.00 0.00 0.00 98 1020.0
20260901075125 69 351 0.0 0.0 0.00 0.00 0.00 98 1020.0
20260901074624 69 351 0.0 0.0 0.00 0.00 0.00 98 1020.0
20260901074119 69 351 0.0 0.0 0.00 0.00 0.00 98 1020.3
20260901073617 69 351 0.0 0.0 0.00 0.00 0.00 98 1020.0
20260901073117 69 351 0.0 0.0 0.00 0.00 0.00 98 1020.3
20260901072612 69 351 0.0 0.0 0.00 0.00 0.00 98 1020.3
20260901072107 69 351 0.0 0.0 0.00 0.00 0.00 98 1020.3
20260901071601 69 351 0.0 0.0 0.00 0.00 0.00 98 1020.3
20260901071100 69 351 0.0 0.0 0.00 0.00 0.00 98 1020.3
20260901070555 69 351 0.0 0.0 0.00 0.00 0.00 98 1020.3
20260901070050 69 351 0.0 0.0 0.00 0.00 0.00 98 1020.3
20260901065544 69 351 0.0 0.0 0.00 0.00 0.00 98 1020.3
20260901065039 69 351 0.0 0.0 0.00 0.00 0.00 98 1020.3
20260901064536 69 351 0.0 0.0 0.00 0.00 0.00 98 1020.3
20260901064032 70 351 0.0 0.0 0.00 0.00 0.00 98 1020.3
20260901063529 70 351 0.0 0.0 0.00 0.00 0.00 98 1020.6
20260901063025 70 351 0.0 0.0 0.00 0.00 0.00 98 1020.6
20260901062521 70 351 0.0 0.0 0.00 0.00 0.00 98 1020.6
20260901062017 70 351 0.0 0.0 0.00 0.00 0.00 98 1020.6
20260901061513 69 351 0.0 0.0 0.00 0.00 0.00 98 1020.6
20260901061012 69 351 0.0 0.0 0.00 0.00 0.00 97 1020.6
20260901060507 69 351 0.0 0.0 0.00 0.00 0.00 97 1020.6
20260901060008 70 351 0.0 0.0 0.00 0.00 0.00 97 1020.6
20260901055503 70 351 0.0 0.0 0.00 0.00 0.00 97 1020.6
20260901055000 70 351 0.0 0.0 0.00 0.00 0.00 97 1021.0
20260901054457 70 351 0.0 0.0 0.00 0.00 0.00 97 1021.0
20260901053953 70 351 0.0 0.0 0.00 0.00 0.00 98 1021.0
20260901053448 70 351 0.0 3.0 0.00 0.00 0.00 98 1021.0
20260901052943 70 351 0.0 0.0 0.00 0.00 0.00 98 1021.0
20260901052439 70 351 0.0 0.0 0.00 0.00 0.00 98 1021.0
20260901051938 70 351 0.0 0.0 0.00 0.00 0.00 98 1021.0
20260901051434 70 351 0.0 0.0 0.00 0.00 0.00 98 1021.0
20260901050933 70 351 0.0 0.0 0.00 0.00 0.00 98 1021.0
20260901050429 70 351 0.0 0.0 0.00 0.00 0.00 97 1021.0
20260901045928 70 351 0.0 0.0 0.00 0.00 0.00 97 1021.3
20260901045424 70 351 0.0 0.0 0.00 0.00 0.00 97 1021.3
20260901044918 70 351 0.0 0.0 0.00 0.00 0.00 97 1021.0
20260901044415 70 351 0.0 0.0 0.00 0.00 0.00 97 1021.0
20260901043910 71 351 0.0 0.0 0.00 0.00 0.00 97 1021.0
20260901043406 71 351 0.0 0.0 0.00 0.00 0.00 96 1021.0
20260901042900 71 351 0.0 0.0 0.00 0.00 0.00 95 1021.0